Regional Weather Roundup
Issued by NWS Green Bay, WI

Home | Current Version | Previous Version | Text Only | Print | Product List | Glossary On
Versions: 1 2 3 4 5 6 7 8 9 10 11 12 13 14 15 16 17 18 19 20 21 22 23 24 25 26 27 28 29 30 31 32 33 34 35 36 37 38 39 40 41 42 43 44 45 46 47 48 49 50
000
ASUS43 KGRB 220010
RWRGRB

NORTH-CENTRAL AND NORTHEAST WISCONSIN REGIONAL WEATHER ROUNDUP
NATIONAL WEATHER SERVICE GREEN BAY WI
700 PM CDT THU AUG 21 2014

WIZ005-009-010>012-018-019-220100-
NORTH CENTRAL WISCONSIN

CITY           SKY/WX    TMP DP  RH WIND       PRES   REMARKS
IRONWOOD       CLOUDY    72  66  83 SE8       29.88S
MANITOWISH WTR CLOUDY    68  65  91 SE6       29.94S
ARBOR VITAE    CLOUDY    70  65  84 SE7       29.94F
EAGLE RIVER    CLOUDY    66  64  92 S5        29.95F
LAND O LAKES   CLOUDY    67  64  87 SE7       29.96S
RHINELANDER    CLOUDY    67  63  87 E8        29.95F
PHILLIPS       CLOUDY    67  65  91 SE7       29.92S
ANTIGO         CLOUDY    64  64  99 E7        29.95F FOG
TOMAHAWK       CLOUDY    66  64  91 E3        29.94S
MERRILL        CLOUDY    67  66  97 E6        29.93R FOG
$$

WIZ013-073-220100-
NORTHEAST WISCONSIN

CITY           SKY/WX    TMP DP  RH WIND       PRES   REMARKS
IRON MOUNTAIN  CLOUDY    67  64  90 SE7       29.95S
MARINETTE      CLOUDY    70  61  73 SE6       29.94F
OCONTO         CLOUDY    68  64  88 CALM      29.93F
$$

WIZ017-030-035>037-045-220100-
CENTRAL WISCONSIN

CITY           SKY/WX    TMP DP  RH WIND       PRES   REMARKS
MEDFORD        CLOUDY    67  66  96 E6        29.92S FOG
WAUSAU         CLOUDY    67  66  97 E8        29.91S FOG
MOSINEE        CLOUDY    68  68 100 E9        29.93S FOG
MARSHFIELD     CLOUDY    76  70  82 SE7       29.90S
WISC RAPIDS    PTCLDY    76  69  79 SE5       29.91S
STEVENS POINT  CLOUDY    69  67  93 E7        29.92S
WAUPACA        CLOUDY    74  70  86 E7        29.91F
SHAWANO        CLOUDY    70  64  83 E6        29.94S
CLINTONVILLE   CLOUDY    70  64  83 E5        29.92S
$$

WIZ038-039-048-051-220100-
FOX VALLEY

CITY           SKY/WX    TMP DP  RH WIND       PRES   REMARKS
NWS GREEN BAY  CLOUDY    69  65  86 E7        29.93F
APPLETON       CLOUDY    72  64  78 VRB5      29.93F
OSHKOSH        CLOUDY    72  69  90 E5        29.91F
FOND DU LAC    MOCLDY    76  69  79 S5        29.91F
$$

WIZ022-050-052-220100-
EAST CENTRAL WISCONSIN

CITY           SKY/WX    TMP DP  RH WIND       PRES   REMARKS
STURGEON BAY   CLOUDY    66  61  82 E5        29.96S
MANITOWOC      CLOUDY    66  64  93 E6        29.94F
SHEBOYGAN      CLOUDY    70  67  90 E6        29.93F FOG
$$

LMZ563-521-522-541>543-220100-
LAKESHORE

STATION/POSITION TIME  TEMP    WIND        PRES    VSBY  WAVE
                       AIR SEA DIR/SP/G                  HT/PER
                 (UTC) (F)     (DEG/KT/KT) (MB)    (MI)  (FT/S)
SHEBOYGAN LKSHOR 0000   67 65  100/  5/  5 1013.7F
KEWAUNEE LKSHORE 0000   65      30/  3/  4 1013.3S
ALGOMA MARINA    2300           90/  7/  9   N/A
NORTHPORT PIER   0000   65     110/  3/  6 1014.2F
N MID LAKE BUOY  0000   65 65   60/  8/  8 1013.5F         0
S GREEN BAY BUOY 2300   69     VRB  4      1015.1R
SISTER BAY LKSHO 2300   66     130/  7/  9   N/A
STURGEON BAY CG  0000   65 64   60/  4     1015.5      6   1
CHAMBERS ISLAND  0000   67      70/  5/  6 1014.6S
MENOMINEE LKSHOR 0000   68     130/  4/  5 1014.8S
$$


USA.gov is the U.S. government's official web portal to all federal, state and local government web resources and services.